[[{"header":{"parameterUnit":"m.s-1","parameterCategory":1,"la1":30.2991,"la2":30.254,"lo1":-89.0895,"lo2":-89.0444,"dy":0.0017,"dx":0.0017,"nx":28,"ny":28,"refTime":"2024-02-17T09:00:00:Z","depth":0,"parameterNumber":2,"parameterNumberName":"U-component_of_WINDS"},"data":[0,0,0,0,0,0,0,0,0,0,0,0,0,0,0,0,0,0,0,0,0,0,0,0,0,0,0,0,0,0,0,0,0,0,0,0,0,0,0,0,0,0,0,0,0,0,0,0,0,0,0,0,0,0,0,0,0,0,-1.4642,-1.4643,0,-1.4691,-1.4691,-1.4692,-1.4678,-1.4677,-1.4676,-1.4675,-1.4725,-1.4728,-1.473,0,0,0,0,0,0,0,0,0,0,0,0,0,-1.4536,-1.4538,-1.4642,-1.4643,-1.4643,-1.4691,-1.4691,-1.4692,-1.4678,-1.4677,-1.4676,-1.4675,-1.4725,-1.4727,-1.473,0,0,0,0,0,0,0,0,0,0,0,0,0,-1.4583,-1.4539,-1.4642,-1.4642,-1.4643,-1.4691,-1.4691,-1.4692,-1.4679,-1.4677,-1.4676,-1.4674,-1.4724,-1.4727,-1.473,-1.4781,0,0,-1.4741,-1.4742,0,0,0,0,0,0,0,0,-1.4581,-1.4587,-1.4642,-1.4642,-1.4643,-1.4677,-1.4673,-1.4722,-1.4679,-1.4665,-1.4675,-1.4674,-1.471,-1.4715,-1.4727,-1.4784,-1.4786,-1.4741,-1.4743,-1.4745,-1.4745,0,0,0,0,0,0,0,-1.4578,-1.4585,-1.4661,-1.4642,-1.4643,-1.464,-1.4645,-1.4682,-1.4696,-1.4666,-1.4665,-1.4671,-1.4711,-1.4724,-1.4728,-1.4786,-1.4741,-1.4744,-1.4746,-1.4747,-1.4886,-1.4888,0,0,0,0,0,0,-1.4574,-1.4583,-1.466,-1.4663,-1.4608,-1.4643,-1.4648,-1.4668,-1.4695,-1.4698,-1.4672,-1.467,-1.4719,-1.4724,-1.473,-1.4791,-1.4745,-1.4748,-1.475,-1.4885,-1.4887,-1.4888,0,0,0,0,0,0,-1.4572,-1.4581,-1.4658,-1.4622,-1.4632,-1.4646,-1.4668,-1.4669,-1.4683,-1.47,-1.4702,-1.4684,-1.4718,-1.4725,-1.4768,-1.4793,-1.4749,-1.4752,-1.4883,-1.4885,-1.4888,-1.4914,0,0,0,0,0,0,-1.4569,-1.458,-1.46,-1.4623,-1.4634,-1.4696,-1.4669,-1.4671,-1.4689,-1.4686,-1.4711,-1.4714,-1.4717,-1.4763,-1.4772,-1.4797,-1.4755,-1.4881,-1.4884,-1.4887,-1.4911,-1.4918,-1.4923,0,0,0,0,0,-1.4565,-1.4606,-1.4601,-1.461,-1.4659,-1.4697,-1.4703,-1.4707,-1.4691,-1.471,-1.4721,-1.4713,-1.4789,-1.4768,-1.4777,-1.4804,-1.4879,-1.4883,-1.4887,-1.4909,-1.4916,-1.4923,0,0,0,0,0,0,-1.4585,-1.4609,-1.4604,-1.4653,-1.4673,-1.4695,-1.472,-1.4715,-1.474,-1.4737,-1.474,-1.4745,-1.479,-1.4801,-1.4777,-1.4854,-1.4831,-1.4837,-1.4845,-1.4853,-1.4858,-1.4855,-1.4758,0,0,0,0,0,-1.4595,-1.4625,-1.4643,-1.4685,-1.4695,-1.4706,-1.4723,-1.4724,-1.4745,-1.4753,-1.4767,-1.4788,-1.4816,-1.4835,-1.4862,-1.4913,-1.4918,-1.4935,-1.4941,-1.4945,-1.4951,-1.4978,-1.4986,-1.4901,-1.4901,-1.4901,0,0,-1.4617,-1.4633,-1.4652,-1.469,-1.4705,-1.4735,-1.4713,-1.4746,-1.4769,-1.4758,-1.48,-1.4811,-1.4834,-1.4881,-1.4902,-1.4892,-1.4975,-1.495,-1.4954,-1.4956,-1.4983,-1.4991,-1.4998,-1.4903,-1.4903,-1.4902,0,0,-1.4671,-1.4687,-1.4723,-1.4739,-1.4763,-1.4769,-1.4778,-1.48,-1.4807,-1.4849,-1.4842,-1.4868,-1.4917,-1.4934,-1.4949,-1.5008,-1.5002,-1.5017,-1.5047,-1.5074,-1.508,-1.5086,-1.5108,-1.5115,-1.5022,-1.5022,-1.5022,0,-1.4695,-1.474,-1.4742,-1.4776,-1.4793,-1.4784,-1.4821,-1.4836,-1.4868,-1.488,-1.4867,-1.4928,-1.4943,-1.4994,-1.5008,-1.502,-1.503,-1.5015,-1.5079,-1.5085,-1.5091,-1.5111,-1.5119,-1.5024,-1.5023,-1.5023,-1.5023,0,-1.4768,-1.48,-1.4826,-1.4857,-1.4876,-1.4911,-1.4919,-1.4938,-1.4937,-1.4945,-1.4987,-1.5004,-1.5035,-1.5047,-1.5046,-1.5097,-1.509,-1.5078,-1.5056,-1.5101,-1.512,-1.5128,-1.5026,-1.5026,-1.5025,-1.5025,0,0,-1.4838,-1.4869,-1.4878,-1.4892,-1.4917,-1.4942,-1.4976,-1.5005,-1.5022,-1.5044,-1.5073,-1.5114,-1.5103,-1.512,-1.512,-1.5144,-1.519,-1.5129,-1.513,-1.514,-1.5248,-1.5257,-1.5266,-1.5185,-1.5187,-1.5188,-1.5246,0,-1.4895,-1.4956,-1.4958,-1.5013,-1.5042,-1.5034,-1.5064,-1.5082,-1.509,-1.5116,-1.5124,-1.5153,-1.5137,-1.5147,-1.5169,-1.518,-1.5212,-1.5175,-1.5212,-1.5214,-1.5207,-1.5276,-1.5286,-1.534,-1.5254,-1.5255,-1.5256,0,-1.497,-1.4994,-1.5052,-1.5073,-1.5085,-1.5112,-1.5139,-1.5163,-1.5184,-1.5188,-1.5206,-1.5203,-1.5238,-1.5214,-1.5262,-1.5237,-1.5252,-1.5259,-1.5261,-1.5265,-1.5238,-1.5283,-1.5358,-1.5366,-1.5268,-1.5267,-1.5266,0,-1.5016,-1.5062,-1.5103,-1.5115,-1.514,-1.5159,-1.517,-1.5189,-1.5207,-1.523,-1.5241,-1.5268,-1.5283,-1.5304,-1.5309,-1.529,-1.5356,-1.5332,-1.5361,-1.5361,-1.5376,-1.5375,-1.5455,-1.5384,-1.5384,-1.5384,-1.5384,0,-1.508,-1.5116,-1.5124,-1.5149,-1.5189,-1.5191,-1.523,-1.524,-1.5257,-1.5284,-1.5278,-1.5303,-1.5307,-1.5332,-1.5336,-1.5375,-1.5382,-1.5386,-1.5386,-1.5387,-1.5386,-1.5397,-1.5394,-1.5386,-1.5386,-1.5385,-1.5385,0,-1.5138,-1.5145,-1.5189,-1.5209,-1.5214,-1.5243,-1.526,-1.5284,-1.529,-1.5324,-1.5332,-1.5343,-1.5373,-1.5379,-1.5415,-1.5417,-1.5463,-1.546,-1.5457,-1.5456,-1.5485,-1.5482,-1.5575,-1.5587,-1.5508,-1.5509,-1.5509,0,-1.5179,-1.5206,-1.5229,-1.5246,-1.5259,-1.5287,-1.5304,-1.5307,-1.5325,-1.535,-1.5371,-1.5401,-1.5424,-1.5473,-1.5483,-1.551,-1.5508,-1.5538,-1.5512,-1.5511,-1.5509,-1.5507,-1.551,-1.5544,-1.5545,-1.5545,-1.5546,0,-1.5251,-1.5253,-1.5278,-1.5305,-1.5326,-1.5347,-1.5367,-1.5382,-1.5387,-1.5408,-1.5439,-1.5457,-1.5493,-1.5522,-1.5549,-1.556,-1.5554,-1.5554,-1.5562,-1.5563,-1.556,-1.5562,-1.5471,-1.5552,-1.5552,-1.5551,-1.5551,-1.5551,-1.5302,-1.5326,-1.5345,-1.5374,-1.5389,-1.5408,-1.5431,-1.5441,-1.5466,-1.5496,-1.5496,-1.5529,-1.5548,-1.5583,-1.5596,-1.5622,-1.5613,-1.5624,-1.5627,-1.563,-1.5633,-1.5555,-1.5627,-1.5627,-1.5627,-1.5627,-1.5626,0,-1.5374,-1.5386,-1.5412,-1.544,-1.5462,-1.5454,-1.5476,-1.5495,-1.5525,-1.5543,-1.5566,-1.5601,-1.5629,-1.5641,-1.5669,-1.5687,-1.5685,-1.5694,-1.5693,-1.5696,-1.564,-1.563,-1.5696,-1.5696,-1.5696,-1.5696,-1.5696,-1.5696,-1.5414,-1.5454,-1.5458,-1.5505,-1.5516,-1.5549,-1.5562,-1.5579,-1.5594,-1.5633,-1.5656,-1.5664,-1.568,-1.5708,-1.5734,-1.5736,-1.5747,-1.5758,-1.576,-1.5707,-1.57,-1.5693,-1.5684,-1.576,-1.576,-1.5814,-1.5814,-1.5814]},{"header":{"parameterUnit":"m.s-1","parameterCategory":1,"la1":30.2991,"la2":30.254,"lo1":-89.0895,"lo2":-89.0444,"dy":0.0017,"dx":0.0017,"nx":28,"ny":28,"refTime":"2024-02-17T09:00:00:Z","depth":0,"parameterNumber":3,"parameterNumberName":"V-component_of_WINDS"},"data":[0,0,0,0,0,0,0,0,0,0,0,0,0,0,0,0,0,0,0,0,0,0,0,0,0,0,0,0,0,0,0,0,0,0,0,0,0,0,0,0,0,0,0,0,0,0,0,0,0,0,0,0,0,0,0,0,0,0,-9.0316,-9.0317,0,-9.0434,-9.0436,-9.0437,-9.0367,-9.0364,-9.036,-9.0357,-9.0469,-9.0475,-9.0481,0,0,0,0,0,0,0,0,0,0,0,0,0,-9.0021,-9.0027,-9.0316,-9.0318,-9.0319,-9.0434,-9.0436,-9.0437,-9.0368,-9.0363,-9.0359,-9.0356,-9.0467,-9.0475,-9.0482,0,0,0,0,0,0,0,0,0,0,0,0,0,-9.0145,-9.0029,-9.0316,-9.0298,-9.0298,-9.0434,-9.0436,-9.0438,-9.0368,-9.0363,-9.0358,-9.0354,-9.0465,-9.0474,-9.0483,-9.064,0,0,-9.0511,-9.0515,0,0,0,0,0,0,0,0,-9.0138,-9.0156,-9.0299,-9.03,-9.03,-9.0381,-9.0373,-9.0505,-9.037,-9.0341,-9.0357,-9.0351,-9.0444,-9.0454,-9.0487,-9.0645,-9.065,-9.0512,-9.0517,-9.0521,-9.0524,0,0,0,0,0,0,0,-9.013,-9.015,-9.0362,-9.0301,-9.0302,-9.0282,-9.0294,-9.0398,-9.0419,-9.0343,-9.0339,-9.0354,-9.0442,-9.0478,-9.0489,-9.0652,-9.0512,-9.052,-9.0525,-9.0529,-9.0945,-9.095,0,0,0,0,0,0,-9.0124,-9.0144,-9.0359,-9.0366,-9.0205,-9.0291,-9.0305,-9.036,-9.0418,-9.0422,-9.0358,-9.035,-9.0465,-9.0479,-9.0493,-9.0681,-9.0521,-9.053,-9.0535,-9.094,-9.0946,-9.0952,0,0,0,0,0,0,-9.0118,-9.0144,-9.0354,-9.0254,-9.0279,-9.0302,-9.0364,-9.0365,-9.0401,-9.0429,-9.0431,-9.0392,-9.0462,-9.048,-9.0605,-9.0684,-9.0534,-9.0542,-9.0933,-9.0942,-9.0949,-9.1059,0,0,0,0,0,0,-9.0109,-9.0142,-9.0204,-9.0256,-9.0285,-9.0467,-9.0369,-9.0371,-9.0418,-9.0409,-9.0461,-9.0465,-9.0459,-9.0592,-9.0614,-9.0694,-9.0549,-9.0926,-9.0937,-9.0947,-9.1048,-9.107,-9.1089,0,0,0,0,0,-9.0099,-9.0228,-9.0207,-9.0233,-9.0363,-9.0472,-9.0488,-9.0481,-9.0424,-9.0486,-9.0504,-9.0463,-9.0672,-9.0605,-9.0629,-9.0714,-9.0921,-9.0934,-9.0946,-9.1039,-9.1066,-9.1088,0,0,0,0,0,0,-9.018,-9.0234,-9.0212,-9.0362,-9.0413,-9.046,-9.0537,-9.0509,-9.0575,-9.0564,-9.055,-9.0563,-9.0693,-9.0715,-9.064,-9.0869,-9.0787,-9.0805,-9.085,-9.0875,-9.0895,-9.0886,-9.0557,0,0,0,0,0,-9.0217,-9.0303,-9.0344,-9.0472,-9.0499,-9.0514,-9.0561,-9.0552,-9.0603,-9.0623,-9.065,-9.0699,-9.0776,-9.0826,-9.0898,-9.1051,-9.1061,-9.1121,-9.1141,-9.1157,-9.1173,-9.1255,-9.1282,-9.0993,-9.0993,-9.0993,0,0,-9.029,-9.033,-9.0385,-9.049,-9.0528,-9.0616,-9.0532,-9.0628,-9.0692,-9.0637,-9.0758,-9.0779,-9.0833,-9.0973,-9.1035,-9.0995,-9.1255,-9.1173,-9.1186,-9.1193,-9.1271,-9.1298,-9.1323,-9.1002,-9.1,-9.0999,0,0,-9.047,-9.051,-9.0622,-9.0663,-9.0724,-9.0733,-9.076,-9.0811,-9.0825,-9.0946,-9.0907,-9.0981,-9.1113,-9.1153,-9.1191,-9.1388,-9.1352,-9.1411,-9.1516,-9.1597,-9.1619,-9.1639,-9.171,-9.1735,-9.1427,-9.1427,-9.1427,0,-9.0554,-9.0687,-9.0681,-9.0782,-9.0828,-9.0786,-9.0897,-9.0936,-9.1016,-9.1048,-9.1003,-9.1169,-9.1202,-9.135,-9.1399,-9.1431,-9.1459,-9.1405,-9.1617,-9.1637,-9.1656,-9.1722,-9.1749,-9.1434,-9.1433,-9.1432,-9.1432,0,-9.0787,-9.088,-9.0962,-9.1045,-9.11,-9.1206,-9.1213,-9.127,-9.1256,-9.1269,-9.1393,-9.1431,-9.1511,-9.1545,-9.1531,-9.1692,-9.1665,-9.1619,-9.1537,-9.169,-9.1753,-9.1778,-9.1443,-9.1441,-9.1439,-9.1437,0,0,-9.1021,-9.1101,-9.1131,-9.1168,-9.1233,-9.1303,-9.1406,-9.1487,-9.1535,-9.1591,-9.1676,-9.179,-9.1748,-9.1791,-9.1781,-9.1852,-9.2005,-9.1796,-9.1797,-9.1834,-9.2185,-9.2219,-9.2249,-9.1982,-9.1987,-9.1991,-9.218,0,-9.1205,-9.1389,-9.1387,-9.1555,-9.164,-9.1601,-9.169,-9.1738,-9.1754,-9.1826,-9.184,-9.1922,-9.186,-9.1886,-9.1954,-9.1972,-9.2075,-9.1958,-9.2059,-9.2063,-9.2048,-9.2282,-9.2319,-9.2496,-9.2204,-9.2209,-9.2212,0,-9.1445,-9.1514,-9.1692,-9.1745,-9.1781,-9.1862,-9.1936,-9.2006,-9.2059,-9.2065,-9.2114,-9.2093,-9.2195,-9.211,-9.2249,-9.217,-9.2211,-9.2226,-9.2232,-9.2241,-9.2147,-9.2297,-9.2552,-9.2579,-9.225,-9.2247,-9.2244,0,-9.1598,-9.1734,-9.1859,-9.1892,-9.1957,-9.2015,-9.2044,-9.2092,-9.2142,-9.2205,-9.2237,-9.231,-9.235,-9.2407,-9.2405,-9.2344,-9.2546,-9.2461,-9.2552,-9.2553,-9.2597,-9.2594,-9.2862,-9.2623,-9.2623,-9.2622,-9.2622,0,-9.1804,-9.1915,-9.1929,-9.2006,-9.2128,-9.2124,-9.2244,-9.2267,-9.231,-9.2389,-9.2358,-9.2431,-9.2426,-9.2499,-9.2499,-9.2614,-9.2632,-9.2638,-9.2636,-9.2641,-9.2641,-9.2668,-9.2655,-9.2629,-9.2628,-9.2626,-9.2625,0,-9.1996,-9.2011,-9.2144,-9.2196,-9.2211,-9.2299,-9.2342,-9.2414,-9.2427,-9.2526,-9.2549,-9.2568,-9.2654,-9.2659,-9.2756,-9.2755,-9.2895,-9.288,-9.2879,-9.2876,-9.2967,-9.2959,-9.3262,-9.3301,-9.3037,-9.3039,-9.3041,0,-9.2127,-9.2212,-9.2274,-9.2327,-9.236,-9.2444,-9.2495,-9.2493,-9.2547,-9.2615,-9.2678,-9.2761,-9.2827,-9.2965,-9.2986,-9.306,-9.3046,-9.3147,-9.3056,-9.3059,-9.3047,-9.3043,-9.3051,-9.3164,-9.3167,-9.317,-9.3172,0,-9.2358,-9.2361,-9.2438,-9.2518,-9.2581,-9.2642,-9.2699,-9.2743,-9.2747,-9.2809,-9.2898,-9.295,-9.3051,-9.3133,-9.3206,-9.3232,-9.3203,-9.32,-9.3225,-9.3231,-9.3227,-9.3231,-9.2927,-9.3193,-9.3191,-9.3189,-9.3188,-9.3187,-9.2523,-9.2597,-9.2654,-9.274,-9.2784,-9.2838,-9.2909,-9.2932,-9.3007,-9.3092,-9.3085,-9.3184,-9.3233,-9.3328,-9.3361,-9.3436,-9.3401,-9.3437,-9.3446,-9.3455,-9.3465,-9.3216,-9.3449,-9.3448,-9.3448,-9.3447,-9.3447,0,-9.2753,-9.2788,-9.2867,-9.2951,-9.3018,-9.2988,-9.305,-9.3107,-9.3196,-9.3247,-9.3314,-9.3416,-9.3496,-9.3524,-9.3601,-9.3655,-9.3644,-9.3676,-9.3671,-9.3678,-9.3492,-9.3463,-9.3684,-9.3684,-9.3684,-9.3684,-9.3684,-9.3684,-9.288,-9.3004,-9.3015,-9.3159,-9.3192,-9.3291,-9.3329,-9.3379,-9.342,-9.3536,-9.3604,-9.3623,-9.3664,-9.3744,-9.3815,-9.3821,-9.3851,-9.3889,-9.3889,-9.3715,-9.3691,-9.3668,-9.3641,-9.3895,-9.3896,-9.4069,-9.407,-9.4071]}]]